STARLINK-34246, 64769

Orbit data source: Space-Track

STARLINK-34246, 64769 is a payload satellite owned by SpaceX/Seattle (US) in LEO that was launched on Tue, 08 Jul 2025 UTC via an FALCON 9 launch vehicle from the Air Force Eastern Test Range (AFETR). Payload-class satellites include a variety of spacecraft equipped with specific instruments for various scientific and technological missions. These include communications satellites like Starlink; space stations such as the ISS; scientific satellites like the Hubble; Earth observation satellites from companies like Planet Labs, Umbra, and HawkEye 360; GPS; miniature CubeSats for education and research; and military/defense satellites.

Loading next visibility...
Identifier
64769, 2025-147Q
Orbit
LEO
Country
Flag of USUS
Related business
Manufacturer
SpaceX/Seattle
Mission
Operational spacecraft
Bus & Motor
STARLINK V2MO, Unknown motor
Mass
575 kg wet, ~530 kg dry
Launch date (UTC)
2025-07-08 (2 months ago)
Launch vehicle
FALCON 9
Launch site
Air Force Eastern Test Range (AFETR)
Object type
Payload
Rocket body
Debris
Shape & HBR
Unknown
Radar Cross Section
Large (>1 m²)

Expand to show TLE details & history
Last TLE update: 11 hours ago

TLE from 11 hours ago
0 STARLINK-34246
1 64769U 25147Q   25242.73055768  .00068743  00000-0  17106-2 0  9992
2 64769  53.1616  51.2644 0001973  83.4289 276.6940 15.39662899  9496
Epoch: 2025-08-30T17:32Z
TLE epoch observation values (Epoch: 2025-08-30T17:32:00.183Z)
Latitude
-0.00006°
Longitude
169.10293°
Altitude
447.852 km
Speed
7.645 km/s
True Right ascension
03h 25m 03s
True Declination
0° 00' 00"
Sunlit
Object was in daylight at epoch
Visualization orbit readout
Latitude
Unknown
Longitude
Unknown
Altitude
Unknown
Speed
Unknown
Apparent Right ascension
Unknown
Apparent Declination
Unknown
Sunlit
N/A
Visualization observer readout
Local Sidereal Time
20:05:24
Azimuth
Unknown
Elevation
Unknown
Doppler factor
Unknown
Orbital elements
Apogee altitude
448.709 km
Perigee altitude
446.016 km
Semi-major axis
6,825.5 km
Eccentricity
0.0002
Inclination
53.1616°
RAAN
51.2644°
Arg. of periapsis
83.4289°
True anomaly
276.67154°
Mean anomaly
276.694°
Eccentric anomaly
276.68277°
Mean motion
3.84894 °/min
Orbital period
93.53 mins
BSTAR
0.0017106
Loading maneuver chart data...
Computing Atmospheric mass density...
Loading historical data...
Loading historical data...
Loading historical data...
Loading historical data...
Loading historical data...
Loading historical data...
Loading historical data...

Documentation

Showing up to 5 results
|